Погода Тарко-Сале

Погода Тарко-Сале : погода сейчас, прогноз погоды и архив. Всё, что Вы хотите узнать о погоде Тарко-Сале!

Хотите узнать прогноз погоды Тарко-Сале? Тогда Вам сюда: Погода Тарко-Сале

Поиск расширенной информации на нашем сайте:

Другие новости

Новости СМИ2

Главная страница сайта

Новости сайта

03.07.2017

Напоминаем, что на нашем специализированном сайте Метеоцентр.Азия вы можете получить высокодетализированные автоматические прогнозы погоды по пунктам России, СНГ и мира в авиационном формате (включающие направление и скорость ветра, видимость, явления погоды, количество и форму облачности, нижнюю и верхнюю границу облачности).

Рекомендуем: http://china-dv.ru/ заказать и купить болюсы хуато.

Погода Тарко-Сале - сегодня

Время (UTC), дата Ветер
(°,м/с) 
Видим.   Явления Облачность Т
(°С)
Тd
(°С)
f(%) Тe
(°С)
Pmin
(гПа)
dP
(гПа)
Po
(мм)
O2
(г/м3)
Тmin Tmax R s Состояние
почвы
09 16.06.18 140 (ЮВ) 10 км    3/0 верхняя 
[Ci sp]
+24.1 +13.5 52 +30  1007.2  0.5  753  276           
12 16.06.18 140 (ЮВ) 10 км    10/0 верхняя 
[Ci sp]
+24.7 +11.9 45 +28  1007.5  0.3  753  276           
21 16.06.18 350 (С) 10 км  {гроза}  3/0 верхняя 
[Ci fib]
+14.7 +14 96 +23  1008  -0.1  754  285           
00 17.06.18 040 (СВ) 10 км  {гроза}  ясно 
+18 +14.3 79 +26  1007.5  -0.5  753  282           
03 17.06.18 090 (В) 10 км    3/1 300 м средняя 
[Cu med, cong|Ac cast]
+23.7 +13.5 53 +30  1006.9  -0.5  753  277  +14.4       
06 17.06.18 090 (В) 10 км    3/3 600 м 
[Cu med, cong]
+26.8 +9.8 34 +28  1005.7  -1.2  752  274           
09 17.06.18 090 (В) 4{11}  10 км    5/5 300 м 
[Cu med, cong]
+27.6 +9.4 32 +28  1004.7  -1  751  273           
18 17.06.18 130 (ЮВ) 10 км    6/0 средняя, верхняя 
[Ac trans|Ci fib]
+15.6 +11.9 79 +20  1008.5  754  285           
21 17.06.18 тихо ()   10 км    10/0 средняя, верхняя 
[Ac trans|Ci fib]
+11.6 +10.6 94 +13  1009.4  0.8  755  290           
00 18.06.18 180 (Ю) 10 км    4/0 верхняя 
[Ci fib]
+14.7 +10.5 76 +18  1009.3  755  287           
03 18.06.18 040 (СВ) 10 км    10/0 верхняя 
[Cs]
+17.5 +6.3 48 +19  1009.3  755  285  +10.8        сухая 
06 18.06.18 110 (В) 10 км    4/0 верхняя 
[Ci sp]
+20.3 +4.1 34 +20  1007.9  -1.4  754  282           
09 18.06.18 010 (С) 10 км    8/3 1000 м верхняя 
[Cu med, cong|Ci fib]
+22.3 +4.6 31 +22  1006.7  -1.1  753  280           
12 18.06.18 050 (СВ) 10 км    4/4 1000 м 
[Cu med, cong]
+23 +4.5 30 +23  1005.5  -1.2  752  279           
18 18.06.18 100 (В) 10 км    5/0 средняя 
[Ac cast]
+15.6 +11.5 77 +20  1004.2  -0.7  751  284           
21 18.06.18 040 (СВ) 10 км    10/0 верхняя 
[Ci fib]
+13.1 +11.3 89 +17  1003.3  -0.9  750  286           
00 19.06.18 030 (СВ) 10 км    10/0 средняя 
[As op]
+14.4 +12.2 87 +20  1001.9  -1.4  749  284           
03 19.06.18 070 (В) 4000 м  слаб. ливневой дождь  10/10 210 м кучево-дожд. 
[Cb cap]
+14.6 +14.1 97 +23  1001  -0.9  748  283  +12.8    0.9     
09 19.06.18 020 (С) 10 км    10/6 480 м кучево-дожд., средняя, верхняя 
[Cb cap|Ac As|Ci fib]
+20.3 +15.1 72 +29  998.3  -0.9  746  277           
15 19.06.18 тихо ()   10 км  {ливн. осадки}  8/8 480 м кучево-дожд., верхняя 
[Cb cap|Ci fib]
+17.1 +16.6 97 +29  997.2  746  279    +20.4     
18 19.06.18 тихо ()   4000 м  дымка{ливн. осадки}  ясно 
+14.4 +14.4 100 +22  996.9  -0.4  745  282           
21 19.06.18 тихо ()   0500 м  туман  ясно 
+12.4 +12.4 100 +17  996.5  -0.4  745  285           
03 20.06.18 340 (С) 4000 м  дымка{туман}  10/10 120 м 
[Sc]
+15.7 +15.7 100 +27  994.7  -1  744  280  +12.4         
06 20.06.18 340 (С) 10 км    10/6 400 м кучево-дожд., средняя, верхняя 
[Cb cap|Ac trans|Ci fib]
+19.1 +15.6 80 +30  992.7  -2  742  276           
09 20.06.18 350 (С) 10 км    10/3 300 м кучево-дожд., средняя, верхняя 
[Cb cap|Ac trans|Cs]
+20.6 +15 70 +30  991.1  -1.6  741  275           
Время (UTC), дата Ветер
(°,м/с) 
Видим.   Явления Облачность Т
(°С)
Тd
(°С)
f(%) Тe
(°С)
Pmin
(гПа)
dP
(гПа)
Po
(мм)
O2
(г/м3)
Тmin Tmax R s Состояние
почвы

Для получения пояснительной информации подведите курсор к названию столбца.

ПОГОДА Тарко-Сале - архив

Всё, что Вы хотите узнать о погоде Тарко-Сале - удобно и подробно!

Выберите нужную дату (начиная с 1 января 2015* года) и нажмите кнопку "Найти".
Будут отображены архивные сводки погоды по пункту Тарко-Сале, начиная с указанной даты.


Отображать данные в формате CSV (для использования в таблицах Excel)


Внимание! Наш архив погоды предназначен исключительно для личного некоммерческого использования в познавательных целях. Если Вам необходимы официальные справки о состоянии погоды (для производственных, юридических, коммерческих и т.п. целей), обращайтесь в органы Росгидромета.

*Примечание: данная дата относится к архиву по метеостанциям СССР (Россия, СНГ, Балтия).
Архив по метеостанциям Зарубежной Европы и Азии (кроме Китая) хранится 10 дней, по другим регионам земного шара (Китай, Африка, Америка, Австралия, Океания) - 1 день.

Тарко-Сале - район местоположения метеостанции


Название, широта, долгота, высота метеостанции:
Тарко-Сале 64.9°ш. 77.8°д. 27 м над ур. моря [Российская Федерация]

Дополнительная информация

В oтличие oт бoльшинства пoгoдных сайтoв мы публикуем пoдрoбную метеoинфoрмацию в детальнoм прoфессиoнальнoм фoрмате.

Характеристики температуры и влажнoсти вoздуха измеряются на высoте 2 м в тени вдали oт зданий и деревьев.
Скoрoсть ветра измеряется на высoте 10 м (на урoвне рoста челoвека скoрoсть ветра ниже в 1.5-2 раза). Если метеoстанция нахoдится в гoрoде или в лесу, тo скoрoсть ветра занижена на 2-4 м/с пo сравнению с oткрытым местoм. Скoрoсть ветра над акватoриями крупных рек и oзёр, а также на вершинах хoлмoв на 2-5 м/с выше, чем в oбычных услoвиях.
Атмoсфернoе давление в разных тoчках местнoсти мoжет значительнo oтличаться oт давления на метеoстанции, в зависимoсти oт услoвий рельефа (при пoдъёме на 10 м давление пoнижается примернo на 1 мм рт.ст.).